User: anonymous   Login
Location: Unspecified
(0.0000°N, 0.0000°E)
Time: 21:20:29
(UTC+00:00)
Language:

Feng Yun - Orbit

View from above orbital plane
View from above orbital plane
View from above satellite
View from above satellite

Ground track
Ground track

The orbit data is extracted from the following two-line orbital elements,

1 24834U 97029A   17141.80884735 -.00000113 +00000-0 +00000-0 0  9991
2 24834 013.6751 031.1478 0099772 157.7962 010.9371 00.96051310071566
Epoch (UTC): 21 May 2017 19:24:44
Eccentricity: 0.0099772
inclination: 13.6751°
perigee height: 36579 km
apogee height: 37445 km
right ascension of ascending node: 31.1478°
argument of perigee: 157.7962°
revolutions per day: 0.96051310
mean anomaly at epoch: 10.9371°
orbit number at epoch: 7156

The dashed part of the orbit path shows where the satellite is in the earth's shadow,  

DLR